Home   Weather   Graz   Past weeks

Flag for Austria Past Weather in Graz, Styria, Austria — Yesterday and Last 2 Weeks

Now
37 °F

Sunny.


Feels Like: 37 °F
Forecast: 33 / 42 °F
Wind: 1 mph from North

Location: Graz-Thalerhof-Flughafen

Current Time: Feb 23, 2017 at 10:20:44 am

Latest Report: Feb 23, 2017 at 9:50 am


Visibility: 10 mi

Pressure: 29.83 "Hg

Humidity: 93%

Dew Point: 36 °F

Location of GrazLocation

Past Weather in Graz — Graph

°F

Graz Temperature Yesterday

Maximum temperature yesterday: 55 °F (at 1:20 pm)
Minimum temperature yesterday: 32 °F (at 6:20 am)
Average temperature yesterday: 42 °F

High & Low Weather Summary for the Past Weeks

 TemperatureHumidityPressure
High55 °F (Feb 22, 1:20 pm)100% (Feb 10, 8:50 am)30.60 "Hg (Feb 10, 8:50 am)
Low21 °F (Feb 14, 4:20 am)38% (Feb 15, 3:20 pm)29.80 "Hg (Feb 22, 3:20 pm)
Average34 °F86%30.28 "Hg
* Reported Feb 8 8:20 am — Feb 23 8:50 am, Graz, Weather by CustomWeather, © 2017

Note: Actual official high and low records may vary slightly from our data, if they occured in-between our weather recording intervals... More about our weather records

Advertising

Graz Weather History for the Previous 24 Hours

Scroll right to see more
 ConditionsComfort  
Time TempWeatherWind HumidityBarometerVisibility
8:50 am
Thu, Feb 23
34 °FSunny.1 mph93%29.83 "Hg10 mi
8:20 am34 °FSunny.2 mph93%29.83 "Hg10 mi
7:50 am34 °FSunny.1 mph100%29.83 "Hg10 mi
7:20 am34 °FFog.1 mph100%29.83 "Hg5 mi
6:50 am32 °FFog.2 mph100%29.80 "Hg5 mi
6:20 am36 °FPassing clouds.1 mph93%29.80 "Hg6 mi
5:50 am36 °FPassing clouds.1 mph93%29.80 "HgN/A
5:20 am36 °FOvercast.3 mph93%29.80 "HgN/A
4:50 am34 °FPassing clouds.2 mph93%29.80 "HgN/A
4:20 am36 °FPassing clouds.2 mph93%29.80 "HgN/A
3:50 am36 °FPassing clouds.1 mph93%29.80 "HgN/A
3:20 am36 °FPartly cloudy.1 mph93%29.80 "HgN/A
2:50 am36 °FPassing clouds.1 mph93%29.80 "Hg5 mi
2:20 am36 °FPassing clouds.2 mph100%29.80 "HgN/A
1:50 am37 °FPassing clouds.1 mph93%29.80 "HgN/A
1:20 am36 °FOvercast.2 mph93%29.80 "HgN/A
12:50 am34 °FPassing clouds.3 mph100%29.80 "HgN/A
12:20 am34 °FPassing clouds.1 mph100%29.80 "Hg5 mi
11:50 pm
Wed, Feb 22
36 °FChilly.2 mph93%29.83 "Hg6 mi
11:20 pm37 °FClear.2 mph93%29.80 "Hg10 mi
10:50 pm36 °FPassing clouds.3 mph93%29.83 "HgN/A
10:20 pm39 °FPassing clouds.3 mph87%29.80 "HgN/A
9:50 pm37 °FClear.2 mph93%29.83 "Hg10 mi
9:20 pm34 °FClear.1 mph93%29.83 "Hg10 mi
8:50 pm36 °FClear.1 mph93%29.83 "Hg10 mi
8:20 pm41 °FClear.1 mph87%29.80 "Hg10 mi
7:50 pm41 °FClear.2 mph87%29.83 "Hg10 mi
7:20 pm41 °FPassing clouds.2 mph87%29.83 "HgN/A
6:50 pm43 °FPassing clouds.2 mph81%29.83 "HgN/A
6:20 pm43 °FPassing clouds.2 mph81%29.83 "HgN/A
5:50 pm50 °FPassing clouds.1 mph67%29.80 "HgN/A
5:20 pm50 °FPartly sunny.3 mph71%29.80 "HgN/A
4:50 pm50 °FPartly sunny.6 mph71%29.83 "HgN/A
4:20 pm52 °FPartly sunny.5 mph67%29.80 "HgN/A
3:50 pm52 °FPartly sunny.2 mph67%29.80 "HgN/A
3:20 pm52 °FScattered clouds.3 mph62%29.80 "HgN/A
2:50 pm54 °FScattered clouds.6 mph58%29.83 "HgN/A
2:20 pm55 °FPassing clouds.7 mph59%29.83 "HgN/A
1:50 pm55 °FPassing clouds.8 mph59%29.83 "HgN/A
1:20 pm55 °FScattered clouds.8 mph59%29.86 "HgN/A
12:50 pm54 °FScattered clouds.7 mph63%29.89 "HgN/A
12:20 pm52 °FScattered clouds.6 mph67%29.89 "HgN/A
11:50 am48 °FBroken clouds.7 mph76%29.92 "HgN/A
11:20 am46 °FBroken clouds.3 mph76%29.92 "HgN/A
10:50 am45 °FBroken clouds.2 mph76%29.95 "HgN/A
10:20 am41 °FBroken clouds.1 mph87%29.95 "HgN/A
Weather by CustomWeather, © 2017

See weather overviewHow to use our weather pages